Theta_e
338 338 338 339 341 343 344 342 339 339 339 339 339 340 343 346 347 348 348 345 342 340 339 337 338 344 350 352 353 354 354 355 356 353 345 336 329 325 324 324 324 325 326 327 328 328 328 328 330 330 330 329 330 332 333 335 336 335 335 336 338 339 339 339 338 337 336 338 340 340 340 340 341 340 340 341 340 340 339 338 338 340 341 343 343
337 338 338 338 338 339 341 341 339 339 339 339 339 340 344 347 346 344 341 340 341 341 339 337 341 348 352 354 354 354 356 356 352 341 330 325 324 325 326 327 329 330 331 331 331 331 331 331 330 330 330 330 331 332 333 334 334 334 334 334 336 338 338 338 339 338 337 338 338 339 339 339 340 339 339 339 339 339 338 335 335 337 339 342 343
337 337 337 338 337 337 338 338 338 338 339 339 338 343 348 347 343 340 339 340 342 341 341 342 346 351 354 354 354 356 355 349 337 327 324 326 327 328 329 330 331 331 331 330 330 330 330 330 330 330 330 330 330 331 332 332 333 334 334 334 334 334 335 335 336 337 337 337 337 337 338 338 337 338 338 338 337 337 335 334 334 335 337 341 343
337 336 337 337 336 337 337 338 338 339 339 338 339 345 349 344 339 339 341 340 341 343 345 346 350 353 354 354 356 356 348 335 325 325 328 329 330 330 330 331 330 330 330 330 329 329 329 329 329 329 329 330 330 331 331 332 332 333 334 334 334 333 333 334 334 334 335 336 336 336 336 336 336 336 337 336 336 336 335 335 333 331 332 337 341
336 337 336 336 337 337 337 338 339 338 338 339 340 342 344 340 339 340 340 341 342 344 347 350 353 354 354 356 355 347 333 325 326 329 330 330 330 330 330 330 330 330 329 328 328 328 329 329 329 329 328 329 329 330 331 331 332 332 332 332 333 332 332 333 332 332 333 335 336 336 335 335 335 335 335 335 337 337 337 336 334 332 332 335 339
336 336 336 336 337 337 338 338 339 338 339 339 339 340 340 340 340 341 340 342 344 347 350 353 354 355 356 355 345 332 325 327 330 330 330 330 330 330 330 330 329 329 328 328 328 328 328 328 328 328 328 328 329 329 330 330 330 331 331 331 331 332 332 332 333 333 333 333 333 334 335 335 336 335 335 335 335 336 337 337 336 336 337 339 339
337 336 336 337 337 337 338 338 338 338 338 339 340 340 340 341 341 341 342 344 346 350 353 354 355 357 355 344 330 325 328 330 330 329 329 329 330 330 329 329 329 328 328 328 328 328 328 328 328 328 327 328 328 329 329 329 330 330 331 331 330 330 331 332 333 333 334 334 333 335 336 336 336 337 336 336 336 336 338 339 338 338 340 342 340
337 337 336 337 338 338 338 338 339 339 339 339 340 340 341 342 342 342 343 346 350 353 354 355 357 355 343 330 325 328 330 329 329 329 328 328 330 329 329 329 329 328 328 328 328 328 327 328 327 328 328 328 328 328 329 329 330 330 330 331 331 332 332 332 334 335 335 336 335 336 337 338 338 338 337 338 338 338 339 339 338 338 339 341 339
337 337 337 337 338 338 338 338 339 339 340 340 340 341 342 342 342 344 346 350 354 354 355 357 355 343 329 325 328 330 329 329 329 328 327 327 329 329 329 329 328 328 328 328 328 328 327 327 328 327 328 328 328 328 327 328 330 330 331 331 332 333 333 333 335 335 335 337 336 336 337 338 338 338 338 338 338 338 338 338 338 339 339 339 338
337 337 337 338 337 338 338 340 339 340 340 339 341 342 342 343 344 346 349 353 354 355 357 355 343 329 325 327 329 329 329 328 327 327 327 326 328 329 329 329 328 328 328 328 329 329 327 327 327 328 328 329 329 328 326 327 329 329 330 330 330 332 332 333 335 334 334 336 336 336 337 337 337 337 337 337 337 337 337 337 337 338 338 338 338
338 337 337 337 338 339 339 339 339 340 340 340 342 343 343 345 346 349 353 354 355 356 355 344 330 324 327 329 329 329 328 327 327 327 326 324 327 329 329 329 329 329 328 329 329 329 328 327 327 328 328 329 329 328 327 327 328 329 329 330 330 330 330 332 334 334 335 336 336 337 336 335 336 337 336 337 337 337 337 337 335 337 338 338 339
338 338 338 339 340 340 340 340 340 341 341 342 342 343 345 347 349 352 355 355 357 356 345 331 324 326 329 328 328 328 326 327 327 326 325 325 326 329 330 330 330 329 329 329 329 329 328 327 327 328 328 328 329 329 328 328 329 330 331 332 332 329 329 332 334 335 336 336 335 336 336 335 336 336 336 337 337 336 337 337 336 336 337 337 338
339 339 340 340 341 341 341 341 341 341 342 342 343 344 346 348 352 354 355 356 356 348 332 324 326 328 328 328 328 326 326 327 326 326 326 326 327 329 330 330 330 330 330 330 330 329 328 328 328 328 328 327 328 329 329 330 332 333 333 334 334 332 332 334 335 335 336 336 335 336 336 336 336 337 336 336 337 337 336 336 336 336 336 337 337
340 340 341 342 343 341 342 343 342 342 343 343 343 346 348 350 354 354 356 356 349 334 324 325 328 328 328 327 326 326 326 326 326 326 326 326 328 329 330 330 330 330 330 330 330 329 328 328 328 329 328 328 327 328 329 331 333 333 333 333 334 334 333 334 335 335 335 335 335 335 335 335 336 337 336 335 336 337 336 335 335 335 335 336 336
341 341 343 343 343 343 343 343 342 344 343 343 345 347 349 353 354 355 357 352 338 324 324 328 328 328 327 325 324 326 326 325 325 326 326 327 329 330 330 331 330 330 329 328 328 329 329 328 328 329 328 328 328 328 330 332 333 333 333 333 333 333 332 331 332 334 334 334 334 334 334 334 335 335 335 336 336 336 335 334 335 335 336 335 335
343 343 344 343 343 344 343 343 344 344 343 345 346 348 352 353 354 356 355 344 327 322 326 328 328 327 325 324 324 326 325 324 325 325 325 328 330 331 331 331 330 331 330 327 326 327 328 328 329 328 326 324 324 324 325 328 331 331 332 332 332 332 331 330 330 331 332 333 333 332 333 333 334 335 334 335 336 336 336 336 336 337 337 336 335
345 344 344 344 344 344 343 344 344 343 344 346 347 350 353 354 355 356 349 332 322 325 328 327 328 326 324 323 324 325 325 324 324 324 324 327 330 331 331 331 331 331 329 326 324 324 325 325 324 321 317 316 317 318 320 325 328 329 329 330 330 331 331 330 331 331 331 332 333 332 332 332 332 333 333 333 335 335 336 336 336 337 337 336 335
345 344 343 344 344 343 343 344 343 344 345 346 348 351 353 354 356 352 337 324 323 327 328 327 327 325 322 322 324 325 324 323 323 324 324 326 330 332 331 331 331 330 327 324 323 321 320 319 316 313 312 312 316 321 325 328 330 329 329 329 329 329 330 331 332 333 332 332 332 332 332 331 331 331 332 332 333 334 335 335 335 337 337 336 335
345 344 344 344 343 343 344 343 344 345 346 347 349 352 353 355 354 343 326 322 326 328 327 327 326 323 322 322 323 323 324 323 322 323 322 324 329 331 331 331 330 329 327 326 325 323 320 316 313 311 310 310 314 321 327 330 330 330 329 329 329 329 329 330 332 331 331 331 332 332 332 332 331 331 331 331 331 332 333 334 335 336 337 336 335
344 344 344 343 344 344 344 344 345 346 347 349 351 352 355 356 347 331 322 325 327 327 327 327 325 323 321 321 322 323 323 323 322 321 322 322 324 327 329 330 329 328 328 327 327 326 323 318 312 309 309 309 313 320 326 329 330 329 329 329 329 329 329 330 331 330 330 331 331 331 331 331 330 330 330 330 330 331 331 331 332 334 335 336 335
344 344 343 344 343 344 344 345 346 347 349 351 351 354 356 350 334 323 323 327 327 326 326 325 324 322 321 320 321 322 322 322 321 320 321 321 321 322 325 327 329 328 327 327 327 326 323 318 312 309 309 309 312 319 325 328 328 328 328 328 328 329 330 330 330 330 329 330 330 329 329 329 329 329 329 329 329 329 330 330 330 330 332 333 333
344 343 344 344 344 344 346 346 347 350 351 352 354 356 351 336 323 322 326 327 327 326 325 324 324 322 321 320 321 321 321 322 320 320 320 320 319 319 320 321 323 324 324 324 324 321 318 314 311 310 310 309 311 317 323 327 327 327 328 328 328 328 328 329 329 328 328 328 327 327 327 328 327 328 328 328 328 329 329 329 329 329 330 330 331
343 343 344 344 344 345 346 346 349 351 352 353 356 352 339 324 321 325 326 327 327 325 324 324 323 322 321 321 320 320 320 320 320 319 318 319 319 319 319 318 319 319 320 320 320 318 315 312 311 311 311 310 310 313 319 324 326 327 327 328 328 328 328 328 327 326 324 323 322 322 323 325 326 327 326 325 325 325 326 325 326 327 328 328 329
343 344 344 344 345 346 347 349 351 352 353 356 354 342 326 321 325 327 326 327 327 325 324 324 323 322 321 320 320 320 319 318 318 317 317 318 318 318 319 319 318 317 317 317 318 317 315 314 313 312 312 312 311 311 313 317 320 322 324 325 326 326 326 325 325 324 323 321 319 319 318 318 320 321 321 319 318 317 318 317 317 318 320 322 324
344 343 344 346 345 346 348 351 352 354 357 355 344 328 320 323 326 326 326 327 325 324 324 324 323 322 321 321 320 319 317 316 316 315 316 316 317 317 318 318 318 318 317 317 318 317 316 316 315 315 314 313 313 312 312 312 313 315 317 320 323 323 323 323 323 323 323 322 321 321 320 317 315 314 314 315 315 314 313 313 313 312 312 313 313
345 344 344 345 346 348 351 351 353 357 356 345 329 321 322 325 325 325 326 326 325 324 324 324 324 323 323 322 320 318 316 315 314 313 313 313 313 315 317 318 317 317 317 317 317 318 318 317 317 316 316 315 315 316 316 317 317 316 316 318 320 319 320 323 325 324 324 324 323 324 324 322 318 315 312 313 316 317 318 318 318 317 317 314 312
345 345 346 346 348 350 350 352 357 356 345 329 322 323 324 324 324 325 326 325 324 324 324 325 326 326 325 323 320 317 316 314 313 312 313 315 315 316 315 317 318 320 320 318 317 318 318 318 318 319 320 319 319 321 322 323 324 323 321 321 321 319 319 322 326 326 326 326 325 325 325 324 322 321 319 318 319 320 321 323 322 322 322 321 319
346 347 348 348 350 351 352 356 357 347 331 322 323 325 325 324 324 325 325 325 324 324 325 326 327 327 325 323 319 317 318 317 314 312 312 317 321 321 319 319 321 323 322 320 318 319 320 321 322 323 324 323 323 324 323 323 323 324 323 323 323 323 321 321 324 325 326 326 325 325 324 324 323 322 322 322 322 322 323 324 324 323 322 322 322
348 349 349 350 351 352 353 353 346 332 323 323 325 324 326 326 325 324 324 325 324 323 325 326 327 327 327 324 322 323 324 321 314 310 310 312 315 318 318 317 318 318 317 317 320 322 323 323 324 324 324 324 323 324 323 322 322 322 322 322 322 323 322 322 323 324 324 324 323 323 322 323 322 322 322 322 322 321 322 325 325 324 322 322 322
348 348 349 350 352 353 353 350 338 326 323 324 324 323 325 325 324 323 323 323 323 322 323 325 325 326 326 322 322 324 324 317 311 309 310 310 309 311 311 310 312 313 312 314 319 322 322 323 324 323 323 323 323 323 323 323 322 322 321 321 321 321 321 322 322 321 320 321 320 320 320 320 320 321 321 321 321 320 320 322 323 322 322 322 323
349 349 350 351 353 354 353 348 337 326 324 324 324 324 325 323 322 322 323 323 323 323 322 321 321 320 319 316 315 317 316 312 310 310 311 310 309 310 310 309 311 311 310 313 320 323 322 322 323 323 322 322 322 322 322 323 323 322 321 320 320 320 320 322 322 320 318 318 318 318 318 318 318 318 318 319 319 319 319 320 321 321 321 321 321
349 350 351 352 354 353 347 339 331 325 325 326 325 324 324 323 321 323 324 323 323 322 322 319 317 315 313 311 310 311 310 311 311 311 310 310 310 310 310 311 311 311 310 314 321 324 323 323 323 322 322 322 322 322 322 322 322 322 321 320 320 319 318 319 320 319 317 318 318 317 317 317 317 317 316 317 317 317 317 318 319 319 320 319 320
350 351 352 351 353 348 338 328 324 324 326 326 325 324 323 321 320 321 322 322 321 320 318 315 313 312 310 308 308 308 308 309 311 311 310 310 309 309 310 311 311 312 314 319 323 324 324 323 323 323 322 322 322 321 322 322 321 321 321 320 319 318 318 319 319 319 318 318 317 317 317 317 317 317 317 316 316 315 315 316 316 318 318 318 319
351 352 352 352 351 343 330 322 323 325 326 325 324 323 321 320 319 320 320 320 319 317 314 312 310 309 307 307 307 307 307 308 310 310 309 309 309 309 310 311 310 310 315 321 323 324 324 324 323 323 323 322 322 321 321 321 321 320 320 320 319 319 319 320 320 320 318 318 317 317 318 317 317 317 317 317 316 315 314 314 315 316 317 317 318
352 352 352 352 347 335 324 322 324 326 326 325 324 321 320 319 319 319 318 317 316 313 311 310 308 307 307 306 306 307 307 307 308 309 309 308 309 308 308 313 316 316 317 321 322 323 324 323 322 323 323 322 322 322 321 321 321 321 321 321 320 320 319 319 319 319 318 318 318 317 318 318 318 317 316 316 317 316 314 313 314 315 317 318 318
352 350 350 349 341 328 321 322 324 325 326 324 322 320 319 318 318 318 318 316 313 311 310 309 308 307 306 306 306 307 307 306 307 308 307 308 309 308 311 319 323 322 321 322 321 320 322 322 321 322 322 322 322 322 321 321 321 320 320 321 321 321 320 319 319 320 319 318 318 318 318 318 318 318 317 316 316 316 314 313 311 311 313 316 317
351 348 348 346 336 324 321 322 324 325 326 324 321 319 318 318 317 317 317 315 313 311 310 309 308 307 306 306 306 306 306 306 306 306 306 307 307 307 312 320 324 322 321 321 319 318 319 318 318 319 320 320 322 322 321 321 321 319 318 319 319 318 316 316 317 319 319 319 318 318 318 317 317 317 317 316 316 316 315 315 313 311 311 313 315
348 347 345 340 330 323 321 323 324 325 325 323 321 318 318 317 316 317 317 315 313 313 312 309 307 307 306 306 306 306 306 306 306 305 305 306 306 308 312 316 319 321 322 320 315 314 317 315 313 314 315 315 318 320 321 322 322 320 320 319 317 316 316 316 316 317 318 318 318 318 317 317 317 317 317 316 316 315 314 315 315 314 313 313 314
346 346 340 331 324 322 323 323 324 325 325 323 321 318 317 316 315 317 318 315 313 314 314 309 309 311 310 306 306 306 305 305 306 307 307 308 310 311 313 314 315 318 319 316 311 311 314 313 310 309 310 309 311 315 319 321 321 319 319 320 319 319 319 319 318 318 318 318 317 317 317 316 316 315 316 316 316 316 315 314 314 314 314 314 314
346 343 336 327 322 324 325 325 325 325 325 323 321 319 318 316 315 316 318 315 314 316 315 312 313 315 313 307 305 306 306 309 312 314 314 314 313 311 311 313 315 315 314 313 310 313 316 315 310 308 308 307 307 309 313 317 319 319 318 320 320 320 319 318 318 317 317 316 316 316 316 317 317 316 315 314 315 316 316 316 315 314 314 315 315
341 335 329 325 325 326 326 325 326 326 325 323 322 321 319 317 316 316 318 316 315 316 316 315 316 315 311 306 306 306 309 315 319 318 316 316 314 310 310 314 316 317 317 315 313 313 316 315 311 310 309 308 307 306 308 312 317 319 319 319 320 319 319 318 317 317 316 316 316 316 315 315 314 314 313 313 315 316 316 316 316 316 315 315 316
334 327 324 325 326 326 325 326 327 326 325 324 324 323 322 319 318 317 317 317 317 316 316 316 317 313 307 306 306 306 309 317 320 317 315 315 314 312 311 313 314 316 319 319 316 313 314 314 312 312 311 309 307 307 308 310 315 319 319 319 319 319 319 318 315 314 315 315 313 313 313 312 311 312 313 314 316 317 316 316 316 317 316 317 316
328 324 324 325 325 325 325 326 327 327 326 325 324 324 323 322 321 319 318 317 317 317 316 316 316 312 306 306 308 305 307 315 319 317 315 316 315 312 311 313 314 314 315 316 316 315 315 314 314 313 312 310 308 308 308 309 312 316 319 319 318 318 319 318 315 315 317 316 312 311 311 312 312 313 314 315 317 317 316 317 317 317 317 317 317
326 325 325 325 324 325 325 324 324 325 327 326 325 324 323 324 324 324 321 317 316 316 316 316 316 312 306 306 308 306 306 313 317 317 316 316 314 313 313 316 317 315 314 315 315 315 315 315 316 314 313 311 310 309 308 308 308 312 315 316 315 315 316 317 316 314 314 315 314 312 311 312 313 314 314 315 317 317 317 317 317 316 317 317 317
325 324 324 324 325 325 325 323 321 323 326 326 325 324 323 324 325 324 322 317 316 316 315 315 316 314 310 307 307 306 308 313 317 317 316 316 314 314 316 318 317 314 314 315 316 315 315 315 316 315 314 312 311 309 308 307 307 308 310 313 315 316 315 314 312 310 309 311 314 315 313 312 313 314 315 315 316 317 317 317 317 316 317 317 317
324 323 324 325 326 325 325 323 321 320 322 324 325 324 323 323 324 322 319 316 315 315 314 315 315 315 314 312 309 307 310 315 318 316 315 316 315 315 318 319 316 315 316 317 316 315 315 315 315 314 314 313 312 310 309 308 307 307 306 308 311 313 311 308 308 308 307 308 312 314 314 313 313 313 315 316 316 316 316 317 317 317 317 317 317
325 324 325 326 325 325 325 325 323 321 319 321 324 324 323 322 321 319 316 315 315 316 316 317 317 317 316 316 314 311 311 315 318 317 315 315 315 317 318 318 316 315 316 316 316 315 315 315 315 314 314 313 313 311 309 308 307 307 307 307 307 309 309 309 310 311 310 308 309 311 313 313 313 314 315 316 316 316 317 317 316 317 317 317 317
325 325 325 326 325 325 326 327 326 322 318 319 322 323 321 320 319 317 316 318 319 319 320 321 321 320 318 317 316 314 312 314 316 317 316 314 314 316 317 316 314 314 315 316 315 316 316 315 315 314 314 314 313 311 310 309 307 307 308 309 310 311 312 312 313 313 312 311 310 309 312 314 315 315 316 317 317 317 317 317 317 317 317 317 317
324 325 326 326 327 327 327 328 327 325 320 319 320 320 318 318 318 319 320 321 321 321 321 322 322 320 318 317 315 313 313 314 315 316 316 316 317 317 316 312 310 311 314 315 315 316 316 316 316 315 314 314 313 312 310 309 308 308 310 311 313 314 315 315 316 316 314 313 312 312 314 316 317 317 317 317 317 317 317 318 318 317 317 317 317
324 325 325 326 327 328 328 328 328 325 321 318 319 318 317 318 320 322 323 324 323 322 322 322 321 320 319 317 314 312 312 314 315 316 316 317 319 319 318 313 308 308 311 314 315 316 316 316 316 316 315 314 313 312 311 309 309 309 312 314 315 316 316 316 316 316 316 315 315 315 316 317 317 317 317 317 317 317 317 318 317 316 316 317 317
324 324 325 326 327 327 327 328 328 325 321 318 318 318 318 320 322 324 325 325 325 325 324 323 321 320 318 316 314 311 311 312 314 316 317 319 319 320 320 318 313 311 313 315 316 316 316 315 315 316 316 315 313 312 311 310 309 311 313 316 316 316 317 316 316 317 316 316 317 317 317 317 317 317 317 317 318 318 317 317 316 315 315 316 317
Wind_Speed
21 20 19 18 17 15 13 14 13 11 10 8 8 8 9 9 9 9 10 12 13 13 13 14 15 17 18 19 20 21 22 24 27 30 30 29 28 28 27 25 23 22 21 19 18 17 16 15 14 13 14 14 12 11 11 11 12 14 16 16 15 14 15 17 19 21 20 16 15 15 14 12 11 10 9 9 10 11 13 13 14 15 17 19 21
20 19 18 18 17 16 15 15 13 10 9 9 9 9 8 9 10 11 12 12 11 12 13 14 15 16 17 18 20 22 24 27 29 29 28 27 26 25 23 21 18 16 15 14 13 12 11 12 12 12 12 12 11 10 11 10 10 12 13 14 15 14 14 16 17 18 18 16 15 14 13 13 12 11 10 10 10 10 12 13 13 14 14 15 16
19 18 17 17 16 16 16 15 13 10 9 10 9 8 7 9 11 11 12 11 11 12 13 13 14 15 17 19 20 23 26 27 28 27 25 24 22 21 20 17 14 12 11 12 12 11 11 11 12 12 11 10 10 9 9 9 9 9 10 10 13 13 14 15 15 16 17 16 15 13 12 13 12 11 10 10 10 11 13 14 15 16 15 15 14
19 18 17 16 15 15 14 13 11 10 10 10 9 7 9 10 11 11 12 12 11 12 12 13 14 15 17 19 21 24 26 26 25 23 22 21 19 18 17 14 13 12 11 11 11 11 11 10 10 11 10 8 8 7 8 8 7 7 8 8 9 10 11 12 13 14 14 14 14 12 11 12 11 11 11 10 10 10 11 12 14 16 16 15 13
19 18 17 16 16 15 13 12 11 10 10 11 10 9 10 12 12 12 12 11 11 11 11 12 14 15 17 20 22 24 24 22 20 19 19 19 18 16 14 13 12 12 11 11 11 10 10 10 10 10 9 9 7 6 7 7 6 6 7 8 8 9 9 10 10 11 11 11 12 10 9 9 10 10 11 11 9 8 7 8 9 10 12 12 11
19 18 17 17 16 15 13 12 11 11 12 12 12 12 12 12 12 12 12 11 11 10 10 11 13 15 17 20 21 21 20 18 17 17 18 18 17 15 14 12 11 11 11 10 10 10 10 9 9 9 9 9 8 7 8 7 7 7 8 7 7 7 7 7 8 9 9 10 10 9 8 9 9 9 10 9 8 7 7 6 6 6 7 7 7
20 18 18 17 16 15 14 13 12 12 13 13 13 13 13 12 12 12 11 10 10 8 9 11 13 15 17 19 18 17 16 15 15 16 18 18 16 13 12 11 10 10 10 10 9 10 10 9 9 9 8 8 7 8 9 8 8 8 7 7 7 6 6 6 6 7 7 8 8 7 7 8 7 7 6 6 6 5 5 4 4 4 5 6 6
20 19 18 18 17 16 15 14 14 14 14 14 14 13 13 12 12 11 10 9 8 7 9 11 13 15 16 16 14 14 13 14 14 15 17 17 14 11 11 11 10 10 10 10 11 11 10 9 9 8 8 9 8 9 9 8 8 8 7 6 7 6 6 5 5 4 4 5 5 4 5 5 5 5 5 5 5 3 3 3 3 3 4 6 8
20 19 19 18 17 16 16 15 15 15 15 14 14 14 13 12 11 10 9 7 6 7 9 11 13 14 13 12 11 11 11 12 14 15 16 16 11 9 10 10 10 10 11 12 13 12 10 8 7 9 10 11 10 10 9 8 8 9 8 8 8 7 6 6 5 4 3 3 4 3 3 3 3 3 4 4 4 4 3 2 2 3 4 5 6
20 19 19 19 18 17 17 16 16 16 15 15 14 14 13 11 10 9 8 6 6 7 9 10 11 10 10 9 8 9 10 11 13 14 15 15 10 7 9 10 12 13 13 13 13 12 9 6 7 10 11 10 11 11 10 9 9 9 10 10 10 9 9 8 8 7 5 4 4 4 4 4 4 4 4 4 5 4 4 3 3 3 3 2 1
20 19 19 19 19 18 18 17 17 16 15 14 14 13 12 11 10 9 8 6 6 7 8 8 8 7 6 6 7 8 9 11 13 14 15 15 11 8 8 10 12 14 14 14 12 10 8 7 8 10 9 8 10 11 10 10 10 10 11 11 11 10 9 9 8 7 7 6 5 5 6 7 6 6 5 6 6 4 5 5 4 4 4 3 3
20 19 19 19 19 19 18 18 18 16 15 14 14 13 12 11 10 9 8 7 7 7 6 6 5 4 4 4 5 7 8 10 13 14 16 16 13 11 9 8 10 13 13 13 12 10 8 7 7 8 8 8 10 10 9 9 10 11 11 11 10 9 8 9 9 9 9 9 8 8 8 8 8 8 7 7 6 6 6 6 6 6 5 4 6
20 20 20 20 20 19 19 18 17 16 15 14 13 12 12 11 10 9 8 7 6 5 4 3 2 2 3 4 5 6 8 11 13 16 18 17 15 13 9 8 9 12 13 13 12 11 8 6 6 6 7 8 9 8 7 9 9 10 10 10 10 9 9 10 11 11 12 14 14 13 11 10 9 8 7 7 7 7 7 6 7 7 7 7 8
21 21 21 20 20 20 19 19 17 16 15 14 13 13 12 12 11 10 9 7 5 4 2 1 2 3 3 4 5 6 10 13 15 18 19 17 17 14 10 7 8 11 12 12 11 10 8 6 6 7 8 10 10 8 8 8 8 8 9 9 10 11 10 11 12 12 12 13 14 15 14 11 9 7 7 8 8 7 6 5 6 8 8 8 8
22 22 21 21 21 21 20 19 18 17 16 15 14 13 13 13 12 11 9 7 5 4 3 3 4 4 4 5 6 8 12 15 17 19 19 17 17 14 9 7 9 10 11 12 11 9 8 7 7 8 9 11 12 10 8 7 6 5 5 7 8 9 10 12 12 12 12 11 12 15 16 14 12 9 8 8 8 9 9 7 8 9 8 8 9
23 23 23 23 23 22 22 20 19 18 17 16 15 14 14 14 13 11 9 7 6 5 5 5 6 6 6 7 7 10 13 15 17 19 18 16 15 12 8 8 9 9 11 15 15 12 10 9 9 10 12 12 11 10 7 5 5 4 4 5 5 6 8 11 12 11 11 11 13 15 16 16 15 12 10 8 7 9 10 9 9 9 8 8 10
25 24 24 24 24 23 23 21 20 19 18 17 16 15 15 15 14 11 9 8 7 7 7 8 8 8 8 8 9 11 13 15 17 19 18 15 13 11 9 10 10 9 12 18 21 19 16 14 13 14 15 14 13 10 7 5 5 4 4 4 4 4 5 7 10 12 12 12 13 14 14 15 15 14 13 11 9 9 9 9 10 10 9 9 11
25 25 25 25 25 24 23 22 20 20 19 17 16 16 16 16 14 12 10 9 9 9 10 10 10 10 9 9 11 12 14 14 16 18 18 16 14 11 10 10 10 11 15 19 21 21 19 17 17 17 18 17 16 14 10 7 5 3 4 4 4 4 5 6 7 8 9 10 11 11 11 13 14 14 13 13 11 10 11 11 12 12 10 10 10
25 26 26 26 26 25 23 22 21 20 19 17 17 17 17 16 14 12 11 11 11 12 12 12 12 12 11 11 12 13 13 14 16 17 18 17 15 12 10 11 11 12 14 15 15 15 16 18 18 19 19 19 19 18 15 12 8 7 7 6 6 8 8 7 5 5 7 8 9 10 10 10 12 12 12 12 11 11 11 11 11 11 11 11 10
26 27 27 26 26 25 24 23 21 20 19 18 18 18 17 16 15 13 13 14 14 14 14 14 14 14 12 11 12 12 13 14 15 16 17 17 17 15 13 12 12 13 14 13 11 11 13 17 19 20 21 21 20 20 20 18 13 11 10 11 11 11 10 9 10 11 11 10 10 10 10 10 10 10 10 11 11 11 10 9 9 9 10 10 9
27 28 28 27 27 26 24 23 21 20 19 18 19 19 17 16 15 15 16 16 16 16 16 15 15 14 13 12 12 11 12 13 14 15 15 16 17 18 16 13 12 13 14 13 12 12 13 15 18 19 21 21 20 20 22 23 21 18 17 16 15 13 12 12 14 14 13 11 10 11 12 11 11 12 11 11 13 14 12 11 10 9 9 9 9
28 29 29 29 28 26 25 24 22 21 20 20 20 19 18 17 17 17 17 17 17 17 16 16 15 14 13 12 11 11 11 13 13 14 14 14 15 16 16 15 15 15 15 15 13 14 15 16 17 18 19 21 22 22 22 23 24 23 23 22 20 18 16 15 15 14 13 13 14 15 15 14 15 15 13 12 14 17 18 16 15 13 11 11 10
29 29 30 30 28 26 26 25 24 22 22 22 21 20 19 19 19 18 18 18 18 17 16 16 15 14 13 12 11 11 12 13 13 13 13 13 13 14 14 14 15 16 17 16 16 16 16 16 16 17 18 21 24 24 24 23 23 22 23 22 20 18 16 15 16 17 19 20 22 22 20 18 17 16 16 17 18 20 22 23 23 21 19 17 16
29 29 31 31 29 28 27 26 25 25 25 24 22 21 20 20 20 19 19 19 18 18 17 16 15 15 14 13 12 12 12 12 12 12 12 11 12 12 12 13 14 15 16 16 16 15 16 16 16 16 18 21 24 24 24 24 24 24 24 22 19 17 17 17 19 20 21 22 24 24 24 24 23 21 21 24 26 26 26 28 28 27 26 24 22
29 31 33 31 29 29 28 28 28 28 26 24 22 21 20 20 19 19 19 19 19 18 17 16 16 15 14 13 13 12 12 12 12 11 11 11 11 11 11 12 13 14 15 15 14 14 14 16 16 16 17 20 22 23 24 25 25 25 25 22 19 19 20 20 20 20 20 20 20 21 22 24 25 25 25 25 26 26 27 27 28 28 28 27 26
31 32 32 30 29 29 30 30 30 28 26 24 23 22 20 18 18 18 19 20 19 18 18 17 16 15 14 13 13 12 12 12 12 11 11 11 11 11 11 11 12 13 14 14 13 13 13 14 15 15 16 18 20 21 21 22 22 23 23 22 21 21 21 21 19 19 18 18 17 17 18 19 21 23 24 24 23 23 23 22 23 23 24 25 26
29 30 29 30 30 30 30 31 30 28 27 26 25 23 20 17 16 19 21 21 19 18 18 17 15 15 14 14 13 13 12 12 11 11 11 10 9 8 9 10 10 10 11 11 12 11 11 11 12 13 14 15 16 16 16 15 15 16 17 18 19 20 20 20 18 17 16 15 15 15 15 15 17 18 19 20 20 19 18 17 17 17 17 18 20
26 28 30 31 31 31 32 32 32 31 29 27 27 25 21 17 18 21 21 21 20 19 18 17 15 14 14 14 13 12 11 11 11 12 12 11 8 7 6 7 8 7 6 8 9 9 9 8 8 8 9 9 9 10 11 12 12 12 13 13 14 15 16 17 16 16 15 14 14 13 13 13 14 14 15 16 16 16 15 15 15 15 14 15 16
28 29 29 30 32 34 35 33 32 31 29 27 28 26 21 19 21 23 23 22 22 21 19 17 15 13 13 13 13 11 10 11 12 12 12 12 11 10 8 8 8 8 8 8 8 6 5 5 4 5 6 6 6 7 8 10 11 11 12 12 12 12 12 13 14 14 13 13 12 12 12 12 12 12 13 14 14 14 14 14 13 13 13 13 14
28 27 28 30 32 32 31 30 29 29 28 28 28 25 22 22 22 21 22 23 22 20 19 18 16 15 15 15 15 14 12 13 13 13 12 12 12 11 10 10 10 9 9 9 8 6 5 4 3 4 5 5 6 6 7 7 8 9 10 11 11 11 11 11 11 12 12 12 12 11 11 11 11 11 11 12 12 12 12 13 13 12 11 12 12
27 29 32 32 31 31 31 31 29 28 27 27 26 24 23 23 21 19 20 21 19 18 17 16 16 16 15 15 16 15 13 13 13 13 13 12 12 11 11 11 11 10 9 9 8 5 4 4 3 4 4 5 6 6 7 7 7 8 8 9 10 10 10 10 10 10 10 11 11 11 11 11 11 11 10 10 10 10 10 10 10 11 11 11 11
29 33 34 33 33 34 33 31 29 28 27 25 25 24 23 24 24 23 23 22 20 19 17 16 16 15 14 14 14 13 13 13 13 14 14 13 12 12 11 10 10 10 9 9 7 4 3 3 3 4 4 5 5 6 6 6 7 7 7 8 8 8 9 11 11 10 9 10 10 10 11 11 10 10 10 10 10 9 9 9 9 9 9 9 10
31 34 34 34 34 33 32 30 30 29 27 25 24 24 23 25 27 27 26 23 21 19 18 17 17 16 15 14 13 12 12 12 13 14 14 13 13 12 11 10 10 10 9 7 5 4 4 3 3 3 4 4 4 5 5 6 6 7 7 7 7 7 9 11 11 9 9 10 10 10 10 10 10 10 10 10 10 10 10 9 9 8 8 8 8
30 31 32 33 33 32 31 31 30 27 23 22 23 24 25 26 26 26 26 24 22 20 19 18 17 16 15 14 13 12 11 12 13 14 14 13 12 12 12 10 9 9 8 6 4 4 3 2 2 3 3 3 4 4 4 5 6 6 6 6 6 6 8 8 8 7 8 9 9 9 9 9 10 10 10 10 11 11 11 10 10 9 9 9 8
25 27 28 28 29 29 29 30 28 23 19 19 22 25 26 26 25 25 25 25 24 23 21 19 18 16 14 13 13 12 11 12 13 14 13 12 12 12 11 9 6 4 5 4 3 3 3 2 2 2 2 2 3 3 3 4 4 5 5 5 4 5 6 6 6 7 7 7 7 8 9 9 9 9 9 10 11 11 11 11 11 10 10 9 9
24 26 27 26 26 26 27 28 26 19 15 17 22 24 25 25 24 24 24 24 24 23 21 20 18 16 14 13 13 12 12 12 13 13 13 12 12 11 10 6 3 3 4 3 3 4 3 2 2 2 2 2 2 2 2 3 3 3 4 4 4 4 4 4 5 6 6 6 7 8 8 8 8 8 8 9 10 11 11 11 12 12 12 11 10
25 27 27 25 25 26 27 28 23 16 13 18 24 25 25 24 23 23 23 23 22 21 20 19 18 16 15 14 13 12 12 12 12 12 12 12 12 12 10 6 4 5 4 4 4 4 3 3 3 2 2 2 2 2 2 2 2 3 4 5 5 5 4 4 5 6 5 5 6 7 7 7 8 8 8 8 9 10 10 10 10 12 13 12 10
23 23 23 22 23 25 27 27 23 16 15 19 24 26 25 24 23 22 22 22 21 20 19 19 17 16 15 15 13 12 13 12 12 12 11 11 11 10 9 8 7 6 5 5 6 5 3 3 3 3 3 3 3 3 2 2 2 2 2 3 4 5 6 6 6 6 6 5 5 6 6 7 7 7 7 7 8 9 9 9 9 9 11 11 10
21 20 20 21 23 25 26 26 22 18 17 22 26 26 24 24 23 22 20 21 21 19 17 17 16 14 14 15 14 13 13 12 11 10 10 9 9 9 8 8 7 7 6 6 6 4 3 3 3 3 3 3 4 5 4 3 3 3 3 2 2 3 4 4 4 5 5 4 5 5 5 6 6 6 6 6 6 7 8 9 9 9 9 9 9
23 22 21 23 24 25 26 25 22 19 21 25 27 26 25 24 24 22 20 19 19 16 15 16 15 14 15 15 14 13 12 11 9 9 9 9 9 10 9 8 7 7 7 6 5 4 3 3 3 3 3 3 4 5 5 5 4 3 3 3 1 1 2 3 3 4 4 4 4 5 5 5 6 6 5 5 6 6 7 8 8 9 9 8 8
25 25 24 25 26 26 25 23 21 21 24 28 27 26 25 24 23 21 19 18 17 16 15 14 14 15 16 15 13 13 13 10 8 9 10 9 9 10 10 9 8 7 5 5 5 5 4 4 3 3 3 3 4 5 5 6 5 4 3 3 2 1 1 2 2 3 4 4 4 4 4 4 4 4 4 5 6 6 6 6 7 7 8 8 8
27 26 25 27 28 26 22 19 20 22 26 28 28 26 25 24 24 22 19 17 16 15 14 13 14 16 16 14 13 14 14 10 8 9 10 9 10 10 11 10 9 8 7 6 6 6 5 4 4 3 4 4 5 5 5 5 5 4 4 3 3 2 1 0 1 3 4 4 3 3 3 3 4 5 4 5 5 5 4 5 6 6 6 8 9
25 24 25 27 28 24 20 18 20 22 26 28 27 26 25 24 23 21 20 18 17 15 14 14 14 16 16 14 13 15 15 12 9 9 10 9 10 11 10 9 8 8 8 8 7 6 5 4 4 4 5 5 5 5 5 6 6 5 4 4 4 3 3 1 0 2 2 2 3 3 3 3 3 3 3 3 3 3 4 5 6 5 6 6 8
23 23 25 26 26 24 22 21 21 22 25 26 26 26 26 25 21 19 19 19 18 15 14 14 14 16 16 15 14 15 16 13 10 9 10 10 10 10 9 8 8 9 9 8 8 7 5 4 5 6 6 6 6 6 6 7 7 6 5 5 4 3 3 3 2 2 2 2 2 2 2 3 3 3 2 3 3 3 4 4 4 5 6 6 6
22 23 24 25 24 24 24 23 22 23 24 25 25 26 27 25 21 18 19 19 18 17 15 14 14 15 15 15 15 15 15 13 11 11 11 11 11 11 9 8 10 10 9 8 8 8 6 5 6 6 7 7 6 6 7 7 7 8 7 6 5 4 4 5 4 3 3 4 3 2 1 2 2 1 1 2 3 2 2 3 3 4 5 4 5
23 24 25 25 24 23 22 22 21 22 24 24 23 24 25 23 20 19 19 18 18 17 15 14 14 15 14 14 14 15 14 13 12 12 12 12 11 11 10 10 11 10 9 9 9 8 7 7 6 6 7 8 7 7 8 7 7 8 8 7 7 6 6 6 4 3 4 4 4 3 2 2 2 3 6 5 3 2 3 3 2 3 3 4 4
25 25 25 24 23 21 20 20 19 20 22 23 22 21 21 21 19 19 19 18 17 16 15 14 14 14 14 14 14 14 14 14 13 13 13 14 13 12 11 12 13 12 10 10 10 8 7 7 7 7 8 8 8 8 8 8 8 8 7 7 7 6 6 5 4 4 4 5 5 5 5 4 2 2 5 5 3 2 2 2 2 3 3 4 4
25 24 23 22 22 21 19 19 19 19 20 22 22 20 19 19 19 19 19 18 17 16 15 14 14 14 14 15 14 14 14 15 14 13 14 15 15 14 14 14 14 13 12 11 10 10 9 8 8 8 8 9 9 9 9 9 9 8 8 7 7 6 5 5 5 4 4 5 5 7 7 7 6 5 6 6 5 3 1 0 2 2 3 4 5
24 23 22 21 21 20 19 19 19 18 18 20 21 21 20 19 19 18 18 17 17 17 15 14 14 14 15 15 15 15 15 15 16 15 15 14 14 14 15 16 16 15 13 12 11 11 10 9 9 8 8 9 9 10 10 10 9 9 8 8 7 6 6 5 5 5 5 6 7 8 8 9 9 8 7 6 5 3 1 1 2 3 4 5 6
22 22 21 20 19 18 18 18 18 17 17 19 21 21 20 19 19 18 17 16 16 16 16 15 14 15 15 16 16 16 16 16 17 16 16 15 15 15 15 16 17 16 14 13 12 11 11 10 9 9 9 9 9 10 10 10 10 10 9 9 8 7 7 6 6 6 6 7 8 9 10 10 10 9 7 5 4 3 3 3 4 5 5 6 7
21 21 21 19 18 18 18 18 18 18 18 19 20 20 20 20 19 17 17 17 16 16 16 16 15 16 16 16 17 17 17 17 17 17 16 16 16 15 15 15 16 15 14 13 13 12 11 10 10 10 9 9 10 10 11 11 11 11 10 9 9 8 8 7 7 7 8 8 9 10 11 11 10 9 7 5 5 5 5 6 6 7 7 8 9
Wind_Direction
202 204 207 211 217 221 226 235 236 231 236 242 248 257 261 262 263 265 269 278 290 299 302 304 310 314 316 319 322 325 329 330 327 323 319 319 320 317 316 316 318 321 323 322 320 317 315 314 317 317 313 312 313 310 304 298 292 284 278 277 278 279 280 279 279 283 286 290 296 300 304 305 302 299 295 291 288 281 277 276 271 265 261 257 254
203 205 209 213 220 224 228 235 236 233 240 247 255 263 261 258 261 267 277 288 297 302 306 309 312 315 317 321 324 327 329 328 323 320 319 321 320 319 320 324 328 332 333 332 331 330 329 327 329 329 325 324 326 323 316 310 302 294 289 286 284 279 277 278 281 284 289 295 299 302 308 309 307 310 306 294 287 280 273 274 273 268 263 260 257
204 206 211 214 220 226 229 233 236 240 248 255 266 262 244 253 271 281 288 294 299 304 308 310 312 317 320 323 326 327 327 325 321 320 321 323 324 327 332 336 339 341 340 339 338 337 335 334 334 334 333 332 334 334 327 320 314 307 301 297 290 282 278 280 280 281 287 294 299 305 308 305 305 308 304 292 283 279 275 273 270 266 261 257 254
205 207 211 215 219 223 224 227 234 245 254 264 269 246 237 265 286 290 289 294 300 303 306 309 315 319 321 324 326 326 325 323 322 323 327 329 333 339 342 343 343 342 343 342 341 341 339 337 339 339 341 344 344 341 335 328 324 314 302 296 291 284 281 282 280 280 286 293 301 306 305 302 302 298 293 289 285 284 283 278 272 265 259 258 261
206 206 210 216 217 218 220 224 232 244 255 265 266 254 261 283 292 289 288 293 295 296 301 310 316 319 322 324 326 325 324 324 327 331 334 337 342 346 345 344 345 344 345 347 346 347 346 344 346 346 350 356 354 345 339 334 329 323 316 311 307 302 295 291 288 287 290 297 301 304 302 297 293 289 289 288 284 284 289 286 278 267 261 261 260
205 205 209 214 215 217 221 225 233 243 252 261 266 270 279 285 285 285 286 286 285 289 301 311 316 319 322 325 325 325 326 330 335 337 340 343 346 345 344 348 351 350 352 354 355 355 353 350 350 353 358 3 360 348 342 340 341 342 338 331 321 312 305 298 296 297 299 302 304 309 312 308 304 299 297 295 289 290 301 301 289 276 275 274 266
206 205 208 212 213 217 222 227 237 246 252 260 268 274 279 280 280 280 280 278 278 287 304 310 314 318 322 325 326 328 332 336 341 344 344 346 345 345 352 357 359 360 359 359 2 360 357 357 356 359 9 11 4 357 354 354 357 352 345 337 328 322 319 312 308 312 317 318 320 325 325 323 321 315 314 316 308 301 317 320 294 272 278 289 291
207 206 208 211 212 217 224 230 238 246 253 261 268 273 275 274 273 271 269 268 270 288 304 308 314 320 325 328 330 334 339 342 346 349 347 346 348 355 4 7 7 7 4 5 8 2 360 6 4 6 22 21 7 4 6 7 9 5 357 353 349 346 346 338 323 323 331 333 335 337 333 330 327 326 337 341 329 322 335 325 296 279 275 287 298
208 207 208 211 214 219 225 232 238 246 255 261 266 270 270 266 263 260 255 254 265 288 299 306 317 324 329 333 336 342 347 349 352 353 351 353 360 8 13 15 14 13 14 15 12 4 4 15 16 21 30 24 11 11 17 19 22 20 13 9 9 11 15 9 354 353 10 359 342 339 340 343 342 338 344 346 343 352 360 344 320 301 276 275 298
210 209 209 212 216 220 224 232 240 248 254 260 264 266 262 256 251 244 239 241 263 285 296 310 321 328 333 339 347 353 356 359 360 0 2 8 18 24 20 21 19 18 21 23 16 8 11 24 30 31 30 21 14 17 22 26 30 29 20 12 11 16 21 20 14 19 33 15 347 348 349 353 2 355 347 353 358 3 4 357 336 321 321 307 318
210 209 209 211 215 218 224 233 241 248 253 257 261 260 253 245 237 227 228 239 260 281 298 316 324 332 343 352 4 7 9 13 14 15 18 23 35 42 29 26 26 22 23 24 18 12 14 21 28 28 20 18 24 22 21 33 39 34 26 15 9 11 13 14 15 18 19 11 9 19 14 12 19 18 11 8 7 10 13 13 9 9 27 49 72
210 208 209 211 213 217 225 234 241 246 250 253 255 252 241 230 222 216 221 239 260 281 304 317 326 346 4 15 24 24 25 30 32 34 34 36 50 58 40 29 33 30 26 23 18 16 18 18 18 16 13 32 42 27 19 37 43 35 28 18 11 16 24 26 24 21 25 33 41 37 27 30 36 29 22 20 22 33 35 25 21 29 51 66 72
211 210 209 210 213 220 227 235 240 243 246 248 247 241 228 216 211 212 221 239 258 279 298 307 336 35 46 49 47 46 47 47 47 48 44 45 59 66 48 30 35 34 29 24 20 21 22 16 13 11 15 36 50 41 35 43 41 37 41 42 41 46 52 50 44 38 42 50 52 46 38 41 44 31 26 36 43 43 40 34 34 44 59 69 75
213 212 211 211 216 223 229 234 238 239 241 242 237 228 217 207 205 211 222 237 251 260 259 222 120 105 95 81 74 70 64 59 57 54 49 50 59 61 47 34 40 38 32 26 24 26 27 26 25 21 22 36 47 53 59 57 43 39 50 59 63 62 59 58 53 47 45 48 51 49 44 43 46 38 35 47 50 42 37 40 52 58 61 67 77
216 213 212 214 218 225 230 233 235 236 235 233 227 216 207 204 206 212 221 229 231 221 199 164 140 130 120 104 94 85 73 66 63 58 52 53 59 58 48 42 46 44 38 36 37 38 37 36 36 34 37 45 45 42 52 59 45 31 40 50 59 63 62 60 56 50 49 50 52 54 49 44 48 52 53 56 57 55 57 61 65 66 61 62 68
216 215 214 217 220 225 231 232 232 232 230 224 215 206 202 203 207 214 219 218 211 198 176 158 150 141 132 120 106 93 80 72 69 63 56 57 63 61 53 55 55 50 47 48 52 56 55 50 48 46 44 43 36 25 26 40 30 14 19 28 40 52 55 55 52 51 56 60 59 57 52 48 52 57 61 63 64 67 68 66 67 69 65 63 67
216 215 216 219 222 226 230 231 230 229 224 216 207 201 201 204 207 213 215 208 199 186 169 160 155 148 139 128 114 101 88 78 75 70 62 62 69 63 56 63 64 61 62 62 62 62 61 58 56 50 42 36 31 21 16 29 34 35 44 48 53 52 45 46 47 46 52 63 66 62 57 56 58 59 60 60 63 74 75 66 66 68 63 67 74
217 217 219 221 224 226 227 228 229 225 217 209 203 201 201 204 207 209 206 201 191 177 167 163 158 150 142 131 119 107 95 85 81 77 69 67 73 71 64 70 73 71 72 69 64 60 57 54 52 48 41 36 32 30 36 48 54 73 102 106 90 69 59 60 54 48 54 63 67 68 66 64 62 59 60 60 63 73 75 71 74 70 58 62 77
218 219 221 223 225 226 226 225 223 219 210 202 200 200 200 203 206 204 197 191 182 170 165 164 158 148 138 128 118 108 100 92 87 83 77 73 78 80 75 77 81 78 74 69 62 56 50 45 47 47 43 38 35 37 48 57 58 64 82 91 82 71 75 88 93 90 84 71 62 63 62 57 54 51 53 59 63 69 72 76 81 71 54 53 67
219 220 222 224 224 224 223 220 215 209 203 197 196 197 200 203 203 198 191 183 175 169 166 164 157 147 138 128 118 111 106 100 93 89 84 80 83 86 84 83 83 81 75 67 57 52 45 41 43 45 43 40 39 41 49 58 63 70 80 87 86 84 89 96 93 88 82 69 57 54 49 43 43 40 41 52 60 64 68 72 77 75 66 60 63
220 221 220 220 221 219 216 212 206 199 195 193 193 194 199 201 198 193 187 179 174 171 167 163 158 149 142 133 122 117 114 108 100 94 90 85 84 85 86 86 85 83 80 72 60 53 49 44 43 44 43 45 46 48 53 60 65 73 81 87 90 92 93 87 80 75 70 61 55 54 50 47 48 46 43 48 56 62 65 66 66 71 75 72 70
221 221 218 217 217 213 207 202 196 190 188 189 192 193 194 195 193 190 183 176 173 172 168 164 159 152 144 136 129 125 121 115 108 102 97 92 86 84 83 85 86 85 82 77 67 59 56 53 50 48 47 49 52 55 59 64 68 74 81 83 82 82 85 83 77 71 68 68 69 66 61 58 56 54 50 50 54 59 63 65 65 66 67 68 72
220 218 215 213 212 206 199 193 187 183 184 188 191 192 190 189 189 184 178 174 173 172 169 164 159 152 145 141 138 133 127 122 116 110 104 99 93 87 82 79 81 83 81 77 71 64 59 58 58 55 52 54 56 57 60 66 71 74 78 79 76 75 78 80 77 74 73 74 74 71 67 66 64 61 60 62 64 65 66 67 66 65 65 65 66
218 215 212 210 207 200 193 186 180 180 184 187 189 190 189 187 182 177 174 175 175 173 169 164 158 153 150 148 146 139 132 128 124 117 112 106 99 93 87 80 78 78 77 73 69 65 63 64 64 62 60 61 61 60 61 65 70 72 73 74 75 77 78 76 75 73 71 69 69 68 67 69 71 71 71 71 72 71 71 71 69 67 66 66 66
215 213 212 210 205 195 187 181 178 180 184 186 185 186 185 180 175 173 175 178 177 174 168 163 160 157 154 152 150 145 138 132 127 123 118 113 107 100 93 87 83 80 76 74 70 65 65 67 68 66 65 66 68 68 67 67 69 73 75 74 74 78 79 76 72 70 68 65 64 63 63 66 70 74 76 76 75 73 73 72 71 69 67 67 67
214 212 212 208 200 190 182 177 177 181 184 183 181 178 175 172 172 176 178 179 179 175 168 163 162 161 158 155 152 149 144 137 132 128 124 119 115 109 103 97 89 82 77 76 75 71 69 70 72 70 68 69 72 71 67 63 63 66 70 71 73 76 78 75 69 66 65 64 63 62 61 62 65 70 74 75 75 73 71 69 68 68 66 65 65
215 212 208 201 192 185 179 176 178 181 183 181 178 171 165 166 174 179 181 181 181 177 169 163 165 166 163 160 157 153 149 145 140 135 128 120 113 109 106 100 90 80 74 74 79 83 81 77 75 69 62 60 60 59 57 56 57 58 61 64 65 67 70 70 68 66 64 62 61 61 61 61 61 62 65 67 67 67 66 65 64 63 63 64 64
208 202 197 191 183 180 180 179 179 181 180 179 178 170 161 163 174 180 184 185 182 178 173 168 170 170 168 166 162 155 151 151 150 145 139 133 129 124 116 106 99 97 93 88 89 92 89 80 70 59 51 48 48 49 51 55 58 59 59 58 58 58 60 62 64 63 61 59 59 59 59 60 61 61 61 62 62 61 62 63 63 62 62 63 65
203 197 192 185 180 180 183 182 181 179 176 178 181 174 164 166 174 180 187 188 183 181 178 173 170 169 169 169 163 155 158 166 164 155 146 141 141 142 139 129 121 120 119 110 104 101 94 80 62 50 51 54 53 51 52 53 55 57 58 59 58 58 58 58 57 56 55 55 56 57 57 58 60 60 59 59 59 58 58 59 59 60 60 61 63
198 191 188 186 183 183 185 186 185 181 176 178 181 176 168 170 177 184 190 189 185 185 183 178 174 173 175 176 171 167 174 179 170 160 153 147 142 140 139 133 125 119 117 115 112 107 97 83 67 55 57 58 56 55 57 57 55 55 55 56 57 57 57 58 54 50 52 56 55 56 57 57 57 57 57 56 55 54 54 54 54 56 58 59 60
188 185 186 187 185 185 188 190 189 185 179 180 183 180 174 172 176 181 184 182 182 185 187 186 183 181 181 181 177 176 180 180 175 168 161 154 147 144 141 135 128 125 125 120 110 96 84 77 69 64 65 65 62 59 57 56 56 55 54 55 55 53 54 59 57 51 52 56 57 56 56 55 55 56 55 53 52 50 48 48 50 53 56 57 57
182 183 186 187 188 190 191 190 187 183 180 182 187 186 179 173 172 174 177 179 181 184 186 186 184 182 181 179 179 180 179 179 181 178 169 160 155 150 144 139 135 131 126 119 109 98 91 87 79 73 71 68 63 60 58 56 55 56 56 55 55 54 59 65 64 58 56 57 55 54 54 54 54 55 54 53 51 48 46 46 47 50 52 54 55
183 185 186 188 192 194 191 187 183 181 181 185 188 187 183 179 176 175 176 179 182 184 184 182 180 180 180 179 179 179 178 179 185 184 176 169 163 156 149 146 145 139 129 119 113 109 102 91 84 79 75 72 66 62 60 58 56 56 57 57 58 60 61 61 57 53 54 56 56 54 53 54 54 54 53 53 50 48 47 46 47 50 51 51 51
188 189 190 192 195 195 190 185 183 181 183 188 189 187 186 185 182 179 178 179 182 184 182 181 181 181 183 182 180 177 177 181 186 188 183 176 169 163 156 151 149 144 134 128 125 118 108 104 103 92 81 79 75 68 63 61 59 56 56 57 58 56 52 50 50 51 52 51 52 54 53 51 52 52 52 52 51 49 49 48 48 50 50 49 50
193 194 194 195 197 196 190 186 184 184 187 191 191 189 189 188 185 182 181 182 183 183 182 182 183 183 185 184 180 177 180 185 188 190 188 181 176 170 157 144 138 141 136 135 141 137 130 137 129 104 90 89 85 77 71 64 57 53 52 49 49 48 45 45 49 55 55 51 50 52 50 47 49 49 48 50 51 49 48 48 49 52 52 49 48
192 195 195 196 198 196 193 190 188 188 190 193 193 192 192 191 187 185 186 186 184 183 183 184 184 185 186 185 181 180 185 190 191 191 189 184 181 174 159 141 148 183 174 171 174 161 153 159 158 138 125 116 99 90 89 76 66 68 67 59 51 46 44 46 48 48 48 47 45 47 46 45 47 48 47 49 51 50 50 50 52 58 63 58 49
191 195 198 198 197 197 196 194 191 190 193 196 196 195 194 192 190 190 190 188 185 184 187 187 186 186 186 184 182 184 189 194 197 195 191 188 186 179 169 165 183 191 187 191 187 173 170 185 183 170 166 158 137 129 124 108 90 81 73 71 69 60 53 59 63 59 53 43 39 42 43 41 43 47 49 50 52 51 51 50 48 52 58 58 50
193 197 201 200 199 199 199 196 193 197 203 202 200 198 195 193 194 193 191 188 186 187 190 191 188 187 189 187 185 187 194 199 202 201 196 191 188 184 181 185 188 186 195 208 201 184 182 202 199 186 181 178 172 168 157 143 145 131 89 69 59 51 47 45 44 48 49 40 34 39 41 39 42 47 51 53 53 50 51 52 48 43 43 45 44
193 195 196 197 199 200 198 197 200 208 207 201 200 198 195 195 197 193 189 190 191 189 192 193 188 185 191 192 189 191 197 199 201 202 198 192 189 189 190 190 190 191 200 208 203 188 187 208 204 186 180 177 171 170 169 168 178 173 147 113 48 36 46 42 31 35 39 33 32 40 43 44 47 50 54 60 57 49 47 48 47 44 39 35 35
189 189 191 193 196 195 195 201 210 213 202 196 197 198 196 197 197 193 189 192 193 190 193 193 186 185 193 195 190 189 192 192 193 197 196 194 196 197 192 187 191 199 203 205 198 183 184 215 219 196 185 179 166 164 167 170 177 177 153 135 123 57 59 50 36 38 36 32 38 43 41 45 46 42 52 74 71 56 46 40 38 39 38 34 33
187 187 189 191 191 191 196 205 213 208 198 194 195 196 196 197 195 192 191 194 194 194 195 192 188 193 198 196 191 188 183 180 190 199 196 195 200 199 193 189 191 193 197 208 209 195 190 214 226 212 199 191 171 162 163 163 167 179 179 165 158 129 77 44 39 52 47 40 46 47 42 55 67 62 71 81 65 46 39 38 38 39 37 36 43
187 187 189 190 191 194 200 206 207 203 198 196 195 195 197 197 196 194 193 194 195 198 196 191 194 201 199 194 195 193 183 174 186 200 197 195 198 199 198 198 200 197 195 205 215 212 207 216 224 217 214 205 182 167 164 163 165 177 187 186 179 163 148 19 41 64 56 42 56 71 66 67 72 70 69 67 52 40 48 51 46 45 41 39 45
189 188 189 191 194 198 201 203 206 207 204 200 199 198 199 200 198 197 198 197 196 197 196 193 197 203 200 195 198 198 189 180 185 194 192 192 197 200 199 200 207 212 211 213 220 221 215 214 220 224 227 219 196 181 176 171 168 173 187 197 196 183 175 194 79 75 66 39 49 77 88 85 77 65 62 66 60 51 54 52 46 47 49 42 39
189 189 190 192 196 200 202 204 212 214 208 204 203 203 203 202 199 198 200 199 197 197 197 195 198 204 204 200 198 197 191 186 187 191 191 191 194 195 193 195 208 217 218 222 228 227 215 211 222 231 233 227 209 196 191 183 176 176 183 196 203 198 189 197 202 172 149 118 68 62 85 96 87 66 58 76 81 66 51 50 56 61 59 48 36
194 194 195 197 200 203 204 206 210 213 210 206 205 205 205 204 200 198 199 199 198 199 198 194 197 203 205 203 201 198 192 187 189 193 193 193 195 194 191 200 215 219 217 222 230 229 215 210 221 231 233 230 219 208 202 195 189 188 187 188 193 206 215 215 212 204 182 154 124 105 110 102 96 113 124 96 80 78 78 60 53 56 51 37 26
198 198 199 200 201 204 205 205 206 208 209 206 204 205 207 205 199 196 196 196 197 199 197 194 197 200 201 202 203 199 192 189 195 198 196 193 195 195 195 203 215 217 214 219 228 228 219 213 217 225 227 225 221 214 209 205 201 199 197 194 194 202 216 219 213 208 197 175 156 153 157 143 145 158 147 129 105 104 114 93 58 58 53 33 19
202 199 199 200 201 203 206 206 206 207 209 207 203 203 204 200 195 194 194 193 194 195 195 195 198 199 199 200 202 200 196 194 196 199 199 197 196 195 198 206 212 214 216 222 228 229 224 221 220 221 222 222 220 215 211 209 209 207 205 205 205 207 213 217 211 207 204 190 177 173 168 156 147 153 146 136 126 118 112 78 29 26 26 14 2
203 200 199 200 202 204 206 206 206 208 209 207 203 199 195 193 192 192 192 193 194 194 194 196 199 199 200 200 200 201 201 199 195 197 202 203 201 201 206 212 214 214 217 225 228 227 226 227 227 225 224 222 218 215 212 212 213 212 211 211 212 210 210 214 211 205 200 193 185 182 175 165 163 174 171 160 153 151 147 340 330 337 341 337 336
203 201 200 201 204 207 208 209 210 210 208 202 199 194 190 189 190 190 191 194 197 198 197 199 200 199 200 202 202 202 203 202 199 198 199 200 201 204 211 217 218 215 215 223 229 229 228 229 229 231 230 225 219 216 215 213 214 217 217 216 214 211 210 212 210 202 198 193 185 181 178 172 169 171 172 167 164 167 196 272 296 309 316 317 321
201 201 203 204 205 209 212 213 212 210 203 197 195 193 191 190 190 191 192 195 199 200 201 201 201 201 202 204 206 206 205 204 204 202 199 199 200 202 208 216 220 218 215 217 223 228 231 231 230 231 233 229 223 219 217 216 216 217 218 216 215 212 208 207 203 200 197 195 189 184 183 180 177 176 179 189 202 221 253 275 291 306 311 307 307
202 204 205 206 206 209 211 211 209 208 203 197 194 194 194 193 193 194 196 198 201 203 203 203 202 203 204 207 210 210 209 208 207 203 200 201 201 201 203 210 215 214 211 212 217 222 227 231 232 232 234 234 229 224 220 219 219 218 218 217 216 213 210 207 204 201 199 198 196 193 192 191 190 191 196 210 230 253 270 278 288 302 307 303 301